Greybull, WY

7:36 PM MST on February 11, 2016 (GMT -0700)
South Big Horn County

Weather History for KGEY - March, 2013

Change the Weather History Date:

Wednesday, March 13, 2013

  Actual Average Record
Temperature  
Mean Temperature 44 °F 36 °F  
Max Temperature 63 °F 50 °F 72 °F (2007)
Min Temperature 24 °F 22 °F 7 °F (2006)
Degree Days  
Heating Degree Days 21 29  
Month to date heating degree days 381 411  
Since 1 July heating degree days 6255 6382  
Cooling Degree Days 0 0  
Month to date cooling degree days 0 0  
Year to date cooling degree days 0 0  
Moisture  
Dew Point 25 °F    
Average Humidity 52    
Maximum Humidity 81    
Minimum Humidity 23    
Precipitation  
Precipitation 0.00 in 0.02 in 0.01 in (2002)
Month to date precipitation 0.01 0.12  
Year to date precipitation 0.43 0.53  
Sea Level Pressure  
Sea Level Pressure 30.19 in    
Wind  
Wind Speed 5 mph (SE)    
Max Wind Speed 10 mph    
Max Gust Speed 14 mph    
Visibility 10 miles    
Events      
T = Trace of Precipitation, MM = Missing Value Source: NWS Daily Summary

Daily Weather History Graph

Daily Weather History Graph

Search for Another Location

Airport or City:

Trip Planner

Search our weather history database for the weather conditions in past years. The results will help you decide how hot, cold, wet, or windy it might be!

Date:

Astronomy

Mar. 13, 2013 Rise Set
Actual Time 7:27 AM MDT 7:16 PM MDT
Civil Twilight 6:58 AM MDT 7:45 PM MDT
Nautical Twilight 6:25 AM MDT 8:19 PM MDT
Astronomical Twilight 5:50 AM MDT 8:53 PM MDT
Moon 8:02 AM MDT (3/13) 9:43 PM MDT (3/13)
Length of Visible Light 12h 46m
Length of Day
11h 48m
Waxing Crescent, 4% of the Moon is Illuminated
Mar 13
Waxing Crescent
Mar 19
First Quarter
Mar 27
Full
Apr 2
Last Quarter
Apr 10
New

Hourly Weather History & Observations

Time (MDT) Temp. Windchill Dew Point Humidity Pressure Visibility Wind Dir Wind Speed Gust Speed Precip Events Conditions
1:53 AM 28.9 °F - 21.0 °F 72% 30.20 in 10.0 mi Calm Calm - N/A   Clear
2:53 AM 28.9 °F 23.9 °F 21.9 °F 75% 30.20 in 10.0 mi ESE 4.6 mph - N/A   Clear
3:53 AM 27.0 °F 23.0 °F 21.9 °F 81% 30.20 in 10.0 mi SE 3.5 mph - N/A   Clear
4:53 AM 28.9 °F 23.9 °F 21.9 °F 75% 30.19 in 10.0 mi ESE 4.6 mph - N/A   Clear
5:53 AM 28.0 °F 21.7 °F 21.9 °F 78% 30.21 in 10.0 mi SE 5.8 mph - N/A   Clear
6:53 AM 26.1 °F - 21.9 °F 84% 30.23 in 10.0 mi Calm Calm - N/A   Clear
7:53 AM 26.1 °F 21.9 °F 21.9 °F 84% 30.25 in 10.0 mi NE 3.5 mph - N/A   Clear
8:53 AM 30.0 °F 22.4 °F 24.1 °F 79% 30.25 in 10.0 mi SE 8.1 mph - N/A   Clear
9:53 AM 36.0 °F 30.3 °F 27.0 °F 70% 30.25 in 10.0 mi SE 6.9 mph - N/A   Clear
10:53 AM 44.1 °F 42.5 °F 27.0 °F 51% 30.24 in 10.0 mi Variable 3.5 mph - N/A   Clear
11:53 AM 50.0 °F - 26.1 °F 39% 30.22 in 10.0 mi SE 5.8 mph - N/A   Scattered Clouds
12:53 PM 55.0 °F - 25.0 °F 31% 30.19 in 10.0 mi SSE 8.1 mph - N/A   Clear
1:53 PM 57.0 °F - 26.1 °F 30% 30.17 in 10.0 mi SSE 8.1 mph - N/A   Clear
2:53 PM 59.0 °F - 25.0 °F 27% 30.15 in 10.0 mi SSE 6.9 mph - N/A   Clear
3:53 PM 62.1 °F - 26.1 °F 25% 30.12 in 10.0 mi SE 9.2 mph - N/A   Clear
4:53 PM 62.1 °F - 25.0 °F 24% 30.11 in 10.0 mi South 5.8 mph - N/A   Clear
5:53 PM 61.0 °F - 26.1 °F 26% 30.12 in 10.0 mi SSE 4.6 mph - N/A   Clear
6:53 PM 57.0 °F - 28.0 °F 33% 30.14 in 10.0 mi South 5.8 mph - N/A   Clear
7:53 PM 51.1 °F - 27.0 °F 39% 30.17 in 10.0 mi ESE 3.5 mph - N/A   Clear
8:53 PM 50.0 °F - 28.9 °F 44% 30.17 in 10.0 mi ESE 4.6 mph - N/A   Clear
9:53 PM 46.0 °F 43.1 °F 30.0 °F 54% 30.18 in 10.0 mi East 5.8 mph - N/A   Clear
10:53 PM 46.9 °F - 28.9 °F 50% 30.17 in 10.0 mi ESE 9.2 mph - N/A   Clear
11:53 PM 43.0 °F 37.7 °F 30.0 °F 60% 30.17 in 10.0 mi SE 9.2 mph - N/A   Clear